User: anonymous   Login
Location: Unspecified
(0.0000°N, 0.0000°E)
Time: 00:48:46
(UTC+00:00)
Language:

APSTAR 6D - Orbit

View from above orbital plane
View from above orbital plane
View from above satellite
View from above satellite

Ground track
Ground track

The orbit is defined by the following mean orbital elements,

1 45863U          26145.53904600 +.00000000 +00000-0 +00000-0 0 00004
2 45863   0.0454 104.3287 0002381 357.0931 109.8259  1.00265446    00
Epoch (UTC): 25 May 2026 12:56:13
Eccentricity: 0.0002381
inclination: 0.0454°
perigee height: 35778 km
apogee height: 35798 km
right ascension of ascending node: 104.3287°
argument of perigee: 357.0931°
revolutions per day: 1.00265446
mean anomaly at epoch: 109.8259°

The dashed part of the orbit path shows where the satellite is in the earth's shadow,  

DLR